• In Netherlands
  • List of Countries
  • For 7 days
  • Water Temperature
  • Satellite Maps
  • Weather Map
  • Weather Widgets
  • user-avatar
    Login

    Hourly Weather Ordino

    Today, 22 May, Monday

    Time Temperature Precipitation Wind Pressure Humidity
    00:00 +8°C° 0 mm 2 mps 634 mmHg 76%
    01:00 +8°C° 0 mm 2 mps 633 mmHg 77%
    02:00 +9°C° 0 mm 1 mps 633 mmHg 79%
    03:00 +8°C° 0 mm 1 mps 633 mmHg 80%
    04:00 +9°C° 0.1 mm 1 mps 633 mmHg 78%
    05:00 +10°C° 0.1 mm 1 mps 634 mmHg 75%
    06:00 +12°C° 0 mm 1 mps 635 mmHg 68%
    07:00 +14°C° 0.1 mm 1 mps 636 mmHg 61%
    08:00 +16°C° 0.1 mm 1 mps 636 mmHg 54%
    09:00 +19°C° 0.1 mm 1 mps 637 mmHg 47%
    10:00 +20°C° 0.4 mm 1 mps 637 mmHg 47%
    11:00 +21°C° 0.4 mm 1 mps 637 mmHg 47%
    12:00 +20°C° 0.4 mm 2 mps 638 mmHg 47%
    13:00 +20°C° 1.2 mm 2 mps 637 mmHg 52%
    14:00 +20°C° 1.2 mm 1 mps 637 mmHg 56%
    15:00 +19°C° 1.2 mm 1 mps 637 mmHg 60%
    16:00 +18°C° 1.3 mm 1 mps 636 mmHg 68%
    17:00 +16°C° 1.3 mm 1 mps 636 mmHg 75%
    18:00 +14°C° 1.3 mm 1 mps 635 mmHg 83%
    19:00 +13°C° 1.2 mm 1 mps 636 mmHg 86%
    20:00 +12°C° 1.2 mm 1 mps 636 mmHg 89%
    21:00 +10°C° 1.2 mm 1 mps 636 mmHg 92%
    22:00 +10°C° 0.5 mm 1 mps 636 mmHg 92%
    23:00 +10°C° 0.5 mm 1 mps 636 mmHg 92%

    Tomorrow, 23 May, Tuesday

    Time Temperature Precipitation Wind Pressure Humidity
    00:00 +10°C° 0.5 mm 1 mps 636 mmHg 92%
    01:00 +9°C° 0.1 mm 1 mps 635 mmHg 93%
    02:00 +8°C° 0.1 mm 1 mps 635 mmHg 93%
    03:00 +8°C° 0.1 mm 1 mps 635 mmHg 94%
    04:00 +9°C° 0 mm 1 mps 635 mmHg 91%
    05:00 +10°C° 0 mm 1 mps 636 mmHg 88%
    06:00 +11°C° 0 mm 1 mps 637 mmHg 86%
    07:00 +13°C° 0 mm 1 mps 638 mmHg 77%
    08:00 +14°C° 0 mm 1 mps 638 mmHg 69%
    09:00 +16°C° 0 mm 1 mps 639 mmHg 60%
    10:00 +18°C° 0.1 mm 1 mps 639 mmHg 58%
    11:00 +18°C° 0.1 mm 2 mps 640 mmHg 56%
    12:00 +19°C° 0.1 mm 2 mps 640 mmHg 55%
    13:00 +19°C° 0.3 mm 2 mps 639 mmHg 57%
    14:00 +18°C° 0.3 mm 2 mps 639 mmHg 60%
    15:00 +18°C° 0.3 mm 2 mps 639 mmHg 62%
    16:00 +18°C° 0.2 mm 1 mps 638 mmHg 67%
    17:00 +16°C° 0.2 mm 1 mps 638 mmHg 71%
    18:00 +15°C° 0.2 mm 1 mps 638 mmHg 75%
    19:00 +14°C° 0 mm 1 mps 637 mmHg 80%
    20:00 +12°C° 0 mm 1 mps 637 mmHg 85%
    21:00 +9°C° 0 mm 2 mps 637 mmHg 90%
    22:00 +9°C° 0 mm 2 mps 637 mmHg 88%
    23:00 +8°C° 0 mm 2 mps 636 mmHg 85%

    Day after tomorrow, 24 May, Wednesday

    Time Temperature Precipitation Wind Pressure Humidity
    00:00 +8°C° 0 mm 2 mps 636 mmHg 82%
    01:00 +7°C° 0 mm 2 mps 636 mmHg 81%
    02:00 +7°C° 0 mm 2 mps 636 mmHg 80%
    03:00 +8°C° 0 mm 1 mps 635 mmHg 80%
    04:00 +9°C° 0 mm 1 mps 636 mmHg 77%
    05:00 +11°C° 0 mm 1 mps 637 mmHg 75%
    06:00 +12°C° 0 mm 1 mps 637 mmHg 73%
    07:00 +14°C° 0 mm 1 mps 638 mmHg 65%
    08:00 +16°C° 0 mm 1 mps 639 mmHg 56%
    09:00 +20°C° 0 mm 1 mps 640 mmHg 48%
    10:00 +21°C° 0 mm 1 mps 640 mmHg 45%
    11:00 +22°C° 0 mm 1 mps 640 mmHg 43%
    12:00 +23°C° 0 mm 1 mps 640 mmHg 40%
    13:00 +23°C° 0 mm 1 mps 639 mmHg 42%
    14:00 +22°C° 0 mm 1 mps 639 mmHg 45%
    15:00 +21°C° 0 mm 2 mps 638 mmHg 47%
    16:00 +21°C° 0 mm 1 mps 638 mmHg 54%
    17:00 +19°C° 0 mm 1 mps 637 mmHg 61%
    18:00 +18°C° 0 mm 1 mps 637 mmHg 68%
    19:00 +15°C° 0 mm 1 mps 636 mmHg 75%
    20:00 +13°C° 0 mm 1 mps 636 mmHg 81%
    21:00 +11°C° 0 mm 1 mps 635 mmHg 87%
    22:00 +11°C° 0 mm 1 mps 635 mmHg 87%
    23:00 +10°C° 0 mm 1 mps 634 mmHg 88%

    25 May, Thursday

    Time Temperature Precipitation Wind Pressure Humidity
    00:00 +10°C° 0 mm 1 mps 634 mmHg 88%
    01:00 +9°C° 0 mm 1 mps 634 mmHg 88%
    02:00 +9°C° 0 mm 1 mps 633 mmHg 88%
    03:00 +9°C° 0 mm 1 mps 633 mmHg 88%
    04:00 +10°C° 0 mm 1 mps 634 mmHg 83%
    05:00 +12°C° 0 mm 1 mps 634 mmHg 78%
    06:00 +14°C° 0 mm 1 mps 635 mmHg 74%
    07:00 +16°C° 0 mm 1 mps 636 mmHg 64%
    08:00 +19°C° 0 mm 1 mps 637 mmHg 54%
    09:00 +22°C° 0 mm 1 mps 637 mmHg 44%
    10:00 +23°C° 0 mm 1 mps 638 mmHg 42%
    11:00 +23°C° 0 mm 1 mps 638 mmHg 40%
    12:00 +24°C° 0 mm 2 mps 638 mmHg 38%
    13:00 +24°C° 0 mm 2 mps 637 mmHg 40%
    14:00 +23°C° 0 mm 2 mps 637 mmHg 43%
    15:00 +23°C° 0 mm 2 mps 637 mmHg 45%
    16:00 +21°C° 0 mm 2 mps 636 mmHg 51%
    17:00 +20°C° 0 mm 2 mps 636 mmHg 57%
    18:00 +18°C° 0 mm 2 mps 635 mmHg 62%
    19:00 +16°C° 0 mm 1 mps 635 mmHg 70%
    20:00 +14°C° 0 mm 1 mps 634 mmHg 77%
    21:00 +11°C° 0 mm 1 mps 634 mmHg 84%
    22:00 +11°C° 0 mm 1 mps 634 mmHg 84%
    23:00 +11°C° 0 mm 1 mps 634 mmHg 85%

    26 May, Friday

    Time Temperature Precipitation Wind Pressure Humidity
    00:00 +11°C° 0 mm 1 mps 633 mmHg 85%
    01:00 +10°C° 0 mm 1 mps 633 mmHg 85%
    02:00 +10°C° 0 mm 1 mps 633 mmHg 85%
    03:00 +10°C° 0 mm 1 mps 633 mmHg 85%
    04:00 +11°C° 0 mm 1 mps 633 mmHg 81%
    05:00 +13°C° 0 mm 1 mps 634 mmHg 78%
    06:00 +14°C° 0 mm 1 mps 635 mmHg 75%
    07:00 +16°C° 0 mm 1 mps 635 mmHg 66%
    08:00 +19°C° 0 mm 1 mps 636 mmHg 58%
    09:00 +21°C° 0 mm 1 mps 637 mmHg 49%
    10:00 +21°C° 0.3 mm 2 mps 637 mmHg 48%
    11:00 +23°C° 0.3 mm 2 mps 637 mmHg 46%
    12:00 +24°C° 0.3 mm 2 mps 637 mmHg 45%
    13:00 +24°C° 0.5 mm 2 mps 636 mmHg 45%
    14:00 +23°C° 0.5 mm 2 mps 636 mmHg 46%
    15:00 +23°C° 0.5 mm 2 mps 636 mmHg 46%
    16:00 +21°C° 0.3 mm 2 mps 635 mmHg 52%
    17:00 +20°C° 0.3 mm 2 mps 635 mmHg 58%
    18:00 +19°C° 0.3 mm 2 mps 635 mmHg 63%
    19:00 +16°C° 0.1 mm 2 mps 634 mmHg 70%
    20:00 +14°C° 0.1 mm 1 mps 634 mmHg 77%
    21:00 +12°C° 0.1 mm 1 mps 633 mmHg 83%
    22:00 +11°C° 0.1 mm 1 mps 633 mmHg 83%
    23:00 +11°C° 0.1 mm 1 mps 633 mmHg 83%

    27 May, Saturday

    Time Temperature Precipitation Wind Pressure Humidity
    00:00 +11°C° 0.1 mm 1 mps 632 mmHg 83%
    01:00 +11°C° 0 mm 1 mps 632 mmHg 83%
    02:00 +10°C° 0 mm 1 mps 632 mmHg 83%
    03:00 +9°C° 0 mm 2 mps 632 mmHg 83%
    04:00 +11°C° 0 mm 1 mps 633 mmHg 79%
    05:00 +13°C° 0 mm 1 mps 634 mmHg 75%
    06:00 +14°C° 0 mm 1 mps 634 mmHg 71%
    07:00 +16°C° 0 mm 2 mps 635 mmHg 63%
    08:00 +18°C° 0 mm 2 mps 636 mmHg 54%
    09:00 +20°C° 0 mm 2 mps 637 mmHg 46%
    10:00 +21°C° 0.1 mm 2 mps 637 mmHg 45%
    11:00 +23°C° 0.1 mm 2 mps 637 mmHg 44%
    12:00 +22°C° 0.1 mm 3 mps 638 mmHg 43%
    13:00 +22°C° 0.3 mm 3 mps 638 mmHg 45%
    14:00 +23°C° 0.3 mm 2 mps 637 mmHg 47%
    15:00 +23°C° 0.3 mm 2 mps 637 mmHg 48%
    16:00 +20°C° 0.2 mm 2 mps 637 mmHg 54%
    17:00 +19°C° 0.2 mm 2 mps 637 mmHg 59%
    18:00 +18°C° 0.2 mm 2 mps 636 mmHg 65%
    19:00 +16°C° 0.2 mm 1 mps 636 mmHg 71%
    20:00 +14°C° 0.2 mm 1 mps 636 mmHg 77%
    21:00 +12°C° 0.2 mm 1 mps 636 mmHg 83%
    22:00 +11°C° 0.1 mm 1 mps 636 mmHg 84%
    23:00 +11°C° 0.1 mm 1 mps 636 mmHg 85%
    Show more